Location: Artiguedieu
(43.5000°N, 0.5454°E)
Time: 09:01:26
(UTC+00:00)

Vanguard 1 Rocket - Pass Details

Date: 30 July 2021
Orbit: 650 x 4226 km, 34.3° (Epoch: 24 September)

Event Time Altitude Azimuth Distance (km) Brightness Sun altitude
Rises 16:39:34 0° 268° (W) 4,259 12.1 27.7°
Maximum altitude 16:46:40 10° 222° (SW) 2,482 10.3 26.4°
Drops below altitude 10° 16:46:42 10° 221° (SW) 2,479 10.3 26.4°
Sets 16:52:03 0° 169° (S) 3,013 10.0 25.5°
